Weather History for KGRD - November, 2013

Change the Weather History Date:

Thursday, November 7, 2013

  Actual Average (KAND) Record (KAND)
Temperature  
Mean Temperature 59 °F -  
Max Temperature 75 °F 64 °F 77 °F (2005)
Min Temperature 39 °F 41 °F 23 °F (1967)
Degree Days  
Heating Degree Days 6    
Growing Degree Days 9 (Base 50)    
Moisture  
Dew Point 49 °F    
Average Humidity 70    
Maximum Humidity 94    
Minimum Humidity 33    
Precipitation  
Precipitation 0.00 in - - ()
Sea Level Pressure  
Sea Level Pressure 30.06 in    
Wind  
Wind Speed 3 mph (WNW)    
Max Wind Speed 12 mph    
Max Gust Speed 17 mph    
Visibility 9 miles    
Events      
Averages and records for this station are not official NWS values.
T = Trace of Precipitation, MM = Missing Value Source: NWS Daily Summary

Daily Weather History Graph

Daily Weather History Graph

Search for Another Location

Airport or City:

Trip Planner

Search our weather history database for the weather conditions in past years. The results will help you decide how hot, cold, wet, or windy it might be!

Date:

Astronomy

Nov. 07, 2013 Rise Set
Actual Time 6:54 AM EST 5:29 PM EST
Civil Twilight 6:28 AM EST 5:56 PM EST
Nautical Twilight 5:58 AM EST 6:26 PM EST
Astronomical Twilight 5:28 AM EST 6:55 PM EST
Moon 10:59 AM EST (11/7) 9:41 PM EST (11/7)
Length of Visible Light 11h 28m
Length of Day
10h 35m
Waxing Crescent, 22% of the Moon is Illuminated
Nov 7
Waxing Crescent
Nov 10
First Quarter
Nov 17
Full
Nov 25
Last Quarter
Dec 2
New

Hourly Weather History & Observations

Time (EST) Temp. Dew Point Humidity Pressure Visibility Wind Dir Wind Speed Gust Speed Precip Events Conditions
12:56 AM 52.0 °F 50.0 °F 93% 30.12 in 10.0 mi Calm Calm - N/A   Clear
1:56 AM 51.1 °F 48.9 °F 92% 30.10 in 7.0 mi Calm Calm - N/A   Clear
2:56 AM 50.0 °F 48.0 °F 93% 30.08 in 5.0 mi Calm Calm - N/A   Clear
3:56 AM 50.0 °F 48.0 °F 93% 30.06 in 10.0 mi Calm Calm - N/A   Clear
4:56 AM 48.9 °F 46.9 °F 93% 30.04 in 8.0 mi Calm Calm - N/A   Clear
5:56 AM 48.9 °F 46.9 °F 93% 30.06 in 10.0 mi Calm Calm - N/A   Mostly Cloudy
6:56 AM 52.0 °F 48.9 °F 89% 30.06 in 10.0 mi Calm Calm - N/A   Overcast
7:56 AM 55.0 °F 52.0 °F 89% 30.05 in 10.0 mi Calm Calm - N/A   Scattered Clouds
8:36 AM 59.0 °F 57.2 °F 94% 30.07 in 8.0 mi Calm Calm - N/A   Mostly Cloudy
8:56 AM 61.0 °F 57.9 °F 90% 30.06 in 10.0 mi SW 6.9 mph - N/A   Overcast
9:36 AM 60.8 °F 59.0 °F 94% 30.06 in 9.0 mi SW 9.2 mph - N/A   Overcast
9:56 AM 62.1 °F 59.0 °F 90% 30.05 in 10.0 mi SSW 8.1 mph - N/A   Overcast
10:06 AM 62.6 °F 59.0 °F 88% 30.05 in 10.0 mi SW 9.2 mph - N/A   Overcast
10:38 AM 66.2 °F 59.0 °F 78% 30.04 in 10.0 mi SW 10.4 mph - N/A   Mostly Cloudy
10:56 AM 69.1 °F 59.0 °F 70% 30.03 in 10.0 mi WSW 11.5 mph - N/A   Mostly Cloudy
11:56 AM 68.0 °F 57.9 °F 70% 30.03 in 10.0 mi WNW 6.9 mph - N/A   Mostly Cloudy
12:56 PM 71.1 °F 57.9 °F 63% 30.00 in 10.0 mi West 10.4 mph - N/A   Mostly Cloudy
1:56 PM 73.9 °F 55.9 °F 53% 29.98 in 10.0 mi WNW 8.1 mph 17.3 mph N/A   Clear
2:56 PM 75.0 °F 54.0 °F 48% 29.97 in 10.0 mi WNW 9.2 mph - N/A   Partly Cloudy
3:11 PM 75.2 °F 53.6 °F 47% 29.98 in 2.5 mi Variable 5.8 mph - N/A   Haze
3:20 PM 75.2 °F 53.6 °F 47% 29.98 in 10.0 mi Variable 4.6 mph - N/A   Partly Cloudy
3:56 PM 75.0 °F 54.0 °F 48% 29.97 in 10.0 mi NW 4.6 mph - N/A   Partly Cloudy
4:56 PM 72.0 °F 45.0 °F 38% 29.99 in 10.0 mi West 5.8 mph - N/A   Scattered Clouds
5:56 PM 66.0 °F 46.0 °F 48% 30.04 in 10.0 mi North 11.5 mph - N/A   Scattered Clouds
6:56 PM 61.0 °F 37.0 °F 41% 30.08 in 10.0 mi NNE 11.5 mph - N/A   Clear
7:56 PM 55.9 °F 27.0 °F 33% 30.12 in 10.0 mi North 10.4 mph - N/A   Clear
8:56 PM 53.1 °F 28.0 °F 38% 30.13 in 10.0 mi North 6.9 mph - N/A   Clear
9:56 PM 48.9 °F 30.0 °F 48% 30.14 in 10.0 mi North 3.5 mph - N/A   Clear
10:56 PM 43.0 °F 33.1 °F 68% 30.16 in 10.0 mi Calm Calm - N/A   Clear
11:56 PM 39.9 °F 32.0 °F 73% 30.17 in 10.0 mi Calm Calm - N/A   Clear